TimeCDT,TemperatureF,Dew PointF,Humidity,Sea Level PressureIn,VisibilityMPH,Wind Direction,Wind SpeedMPH,Gust SpeedMPH,PrecipitationIn,Events,Conditions,WindDirDegrees,DateUTC
12:51 AM,82.0,68.0,62,29.88,10.0,South,18.4,25.3,N/A,,Clear,170,2013-06-26 05:51:00
1:51 AM,80.1,69.1,69,29.88,10.0,South,17.3,24.2,N/A,,Clear,180,2013-06-26 06:51:00
2:51 AM,78.1,70.0,76,29.88,10.0,South,15.0,-,N/A,,Clear,180,2013-06-26 07:51:00
3:51 AM,77.0,70.0,79,29.88,10.0,South,16.1,21.9,N/A,,Clear,180,2013-06-26 08:51:00
4:51 AM,75.9,71.1,85,29.89,10.0,South,13.8,-,N/A,,Mostly Cloudy,180,2013-06-26 09:51:00
5:51 AM,78.1,70.0,76,29.90,10.0,South,19.6,25.3,N/A,,Overcast,190,2013-06-26 10:51:00
6:21 AM,77.0,69.8,78,29.94,10.0,South,16.1,-,N/A,,Scattered Clouds,190,2013-06-26 11:21:00
6:51 AM,77.0,71.1,82,29.92,9.0,South,12.7,-,N/A,,Partly Cloudy,180,2013-06-26 11:51:00
7:47 AM,78.8,71.6,78,29.96,9.0,South,13.8,20.7,N/A,,Mostly Cloudy,190,2013-06-26 12:47:00
7:51 AM,79.0,71.1,77,29.94,9.0,South,15.0,21.9,N/A,,Mostly Cloudy,180,2013-06-26 12:51:00
8:10 AM,80.6,71.6,74,29.96,10.0,South,17.3,24.2,N/A,,Mostly Cloudy,180,2013-06-26 13:10:00
8:40 AM,82.4,69.8,66,29.97,10.0,South,15.0,23.0,N/A,,Mostly Cloudy,190,2013-06-26 13:40:00
8:51 AM,82.9,69.1,63,29.94,10.0,South,17.3,24.2,N/A,,Mostly Cloudy,190,2013-06-26 13:51:00
9:37 AM,84.2,69.8,62,29.97,10.0,SSW,21.9,29.9,N/A,,Scattered Clouds,200,2013-06-26 14:37:00
9:51 AM,84.9,69.1,59,29.95,10.0,South,20.7,27.6,N/A,,Scattered Clouds,190,2013-06-26 14:51:00
10:51 AM,89.1,70.0,53,29.95,10.0,South,19.6,26.5,N/A,,Mostly Cloudy,180,2013-06-26 15:51:00
11:51 AM,93.0,70.0,47,29.95,10.0,South,17.3,25.3,N/A,,Scattered Clouds,180,2013-06-26 16:51:00
12:51 PM,93.9,70.0,46,29.94,10.0,South,13.8,23.0,N/A,,Scattered Clouds,190,2013-06-26 17:51:00
1:51 PM,96.1,71.1,44,29.92,10.0,South,12.7,-,N/A,,Clear,180,2013-06-26 18:51:00
2:51 PM,97.0,70.0,41,29.90,10.0,South,12.7,21.9,N/A,,Clear,190,2013-06-26 19:51:00
3:51 PM,99.0,70.0,39,29.88,10.0,South,15.0,-,N/A,,Clear,180,2013-06-26 20:51:00
4:51 PM,99.0,68.0,36,29.86,10.0,South,12.7,-,N/A,,Clear,190,2013-06-26 21:51:00
5:51 PM,99.0,66.9,35,29.85,10.0,South,13.8,-,N/A,,Clear,180,2013-06-26 22:51:00
6:51 PM,97.0,66.0,36,29.85,10.0,South,10.4,-,N/A,,Clear,180,2013-06-26 23:51:00
7:51 PM,93.9,64.9,38,29.84,10.0,South,9.2,-,N/A,,Clear,180,2013-06-27 00:51:00
8:51 PM,89.1,66.9,48,29.85,10.0,SSE,8.1,-,N/A,,Clear,160,2013-06-27 01:51:00
9:51 PM,90.0,64.9,43,29.86,10.0,South,9.2,-,N/A,,Clear,170,2013-06-27 02:51:00
10:51 PM,88.0,66.0,48,29.88,10.0,South,8.1,-,N/A,,Clear,170,2013-06-27 03:51:00
11:51 PM,84.9,66.9,55,29.89,10.0,South,9.2,-,N/A,,Clear,170,2013-06-27 04:51:00